| time (UTC) | temp C | wind direction | speed KPH | gust KPH | rain 1hr cm | rain 24hr cm | rain mn cm | humidity % | barometer mb |
| 20260510194024 | 30 | 319 | 1.6 | 8.0 | 0.00 | 0.13 | 0.00 | 72 | 1017.1 |
| 20260510193523 | 30 | 199 | 1.6 | 9.7 | 0.00 | 0.13 | 0.00 | 73 | 1017.2 |
| 20260510193037 | 30 | 304 | 1.6 | 9.7 | 0.00 | 0.13 | 0.00 | 73 | 1017.2 |
| 20260510192521 | 30 | 317 | 3.2 | 9.7 | 0.00 | 0.13 | 0.00 | 73 | 1017.2 |
| 20260510192021 | 31 | 264 | 1.6 | 9.7 | 0.00 | 0.13 | 0.00 | 73 | 1017.2 |
| 20260510191540 | 31 | 331 | 3.2 | 8.0 | 0.00 | 0.13 | 0.00 | 73 | 1017.1 |
| 20260510191026 | 31 | 319 | 3.2 | 8.0 | 0.00 | 0.13 | 0.00 | 73 | 1017.1 |
| 20260510190523 | 31 | 319 | 1.6 | 8.0 | 0.00 | 0.13 | 0.00 | 73 | 1017.0 |
| 20260510190041 | 31 | 325 | 3.2 | 8.0 | 0.00 | 0.13 | 0.00 | 73 | 1016.9 |
| 20260510185526 | 31 | 296 | 3.2 | 9.7 | 0.00 | 0.13 | 0.00 | 74 | 1017.0 |
| 20260510185025 | 31 | 348 | 1.6 | 9.7 | 0.00 | 0.13 | 0.00 | 74 | 1017.1 |
| 20260510184543 | 31 | 312 | 3.2 | 8.0 | 0.00 | 0.13 | 0.00 | 72 | 1017.0 |
| 20260510184022 | 32 | 338 | 3.2 | 9.7 | 0.00 | 0.13 | 0.00 | 72 | 1017.1 |
| 20260510183522 | 32 | 302 | 3.2 | 9.7 | 0.00 | 0.13 | 0.00 | 73 | 1017.2 |
| 20260510183039 | 31 | 225 | 3.2 | 9.7 | 0.00 | 0.13 | 0.00 | 73 | 1017.3 |
| 20260510182521 | 31 | 293 | 1.6 | 12.9 | 0.00 | 0.13 | 0.00 | 73 | 1017.1 |
| 20260510182021 | 31 | 290 | 4.8 | 12.9 | 0.00 | 0.13 | 0.00 | 72 | 1017.1 |
| 20260510181600 | 32 | 319 | 3.2 | 8.0 | 0.00 | 0.13 | 0.00 | 72 | 1017.3 |
| 20260510181021 | 32 | 282 | 3.2 | 9.7 | 0.00 | 0.13 | 0.00 | 71 | 1017.4 |
| 20260510180522 | 32 | 304 | 3.2 | 9.7 | 0.00 | 0.13 | 0.00 | 71 | 1017.4 |
| 20260510180058 | 32 | 271 | 3.2 | 12.9 | 0.00 | 0.13 | 0.00 | 71 | 1017.5 |
| 20260510175524 | 32 | 325 | 3.2 | 12.9 | 0.00 | 0.13 | 0.00 | 70 | 1017.4 |
| 20260510175021 | 32 | 207 | 3.2 | 12.9 | 0.00 | 0.13 | 0.00 | 71 | 1017.5 |
| 20260510174539 | 32 | 317 | 3.2 | 9.7 | 0.00 | 0.13 | 0.00 | 70 | 1017.5 |
| 20260510174023 | 33 | 319 | 3.2 | 9.7 | 0.00 | 0.13 | 0.00 | 70 | 1017.7 |
| 20260510173524 | 32 | 263 | 3.2 | 12.9 | 0.00 | 0.13 | 0.00 | 70 | 1017.6 |
| 20260510173037 | 33 | 237 | 1.6 | 16.1 | 0.00 | 0.13 | 0.00 | 70 | 1017.7 |
| 20260510172525 | 33 | 329 | 3.2 | 16.1 | 0.00 | 0.13 | 0.00 | 70 | 1017.7 |
| 20260510172021 | 33 | 332 | 3.2 | 8.0 | 0.00 | 0.13 | 0.00 | 70 | 1017.7 |
| 20260510171546 | 33 | 342 | 1.6 | 6.4 | 0.00 | 0.13 | 0.00 | 70 | 1017.8 |
| 20260510171024 | 32 | 309 | 3.2 | 6.4 | 0.00 | 0.13 | 0.00 | 71 | 1017.7 |
| 20260510170524 | 32 | 321 | 3.2 | 11.3 | 0.00 | 0.13 | 0.00 | 70 | 1017.8 |
| 20260510170038 | 32 | 326 | 1.6 | 11.3 | 0.00 | 0.13 | 0.00 | 71 | 1017.8 |
| 20260510165522 | 33 | 265 | 3.2 | 9.7 | 0.00 | 0.13 | 0.00 | 70 | 1017.8 |
| 20260510165024 | 33 | 321 | 3.2 | 8.0 | 0.00 | 0.13 | 0.00 | 69 | 1017.8 |
| 20260510164536 | 33 | 333 | 1.6 | 6.4 | 0.00 | 0.13 | 0.00 | 70 | 1017.8 |
| 20260510164021 | 33 | 300 | 3.2 | 6.4 | 0.00 | 0.13 | 0.00 | 69 | 1017.9 |
| 20260510163525 | 33 | 327 | 3.2 | 6.4 | 0.00 | 0.13 | 0.00 | 68 | 1017.8 |
| 20260510163037 | 33 | 309 | 1.6 | 6.4 | 0.00 | 0.13 | 0.00 | 68 | 1017.8 |
| 20260510162522 | 33 | 300 | 1.6 | 6.4 | 0.00 | 0.13 | 0.00 | 68 | 1017.7 |
| 20260510162022 | 33 | 281 | 3.2 | 8.0 | 0.00 | 0.13 | 0.00 | 68 | 1017.8 |
| 20260510161538 | 33 | 307 | 1.6 | 8.0 | 0.00 | 0.13 | 0.00 | 67 | 1017.9 |
| 20260510161027 | 33 | 228 | 1.6 | 8.0 | 0.00 | 0.13 | 0.00 | 67 | 1017.9 |
| 20260510160527 | 33 | 279 | 1.6 | 6.4 | 0.00 | 0.13 | 0.00 | 68 | 1017.8 |
| 20260510160039 | 33 | 209 | 1.6 | 6.4 | 0.00 | 0.13 | 0.00 | 67 | 1017.8 |
| 20260510155528 | 33 | 328 | 1.6 | 6.4 | 0.00 | 0.13 | 0.00 | 67 | 1017.9 |
| 20260510155024 | 32 | 316 | 1.6 | 6.4 | 0.00 | 0.13 | 0.00 | 65 | 1018.0 |
| 20260510154537 | 33 | 319 | 1.6 | 4.8 | 0.00 | 0.13 | 0.00 | 64 | 1018.0 |
| 20260510154025 | 33 | 298 | 1.6 | 4.8 | 0.00 | 0.13 | 0.00 | 63 | 1017.9 |
| 20260510153521 | 33 | 249 | 1.6 | 6.4 | 0.00 | 0.13 | 0.00 | 62 | 1017.8 |
| 20260510153037 | 33 | 16 | 1.6 | 6.4 | 0.00 | 0.13 | 0.00 | 63 | 1017.8 |
| 20260510152521 | 33 | 0 | 1.6 | 11.3 | 0.00 | 0.13 | 0.00 | 61 | 1017.8 |
| 20260510152024 | 33 | 0 | 1.6 | 11.3 | 0.00 | 0.13 | 0.00 | 63 | 1017.7 |
| 20260510151541 | 33 | 298 | 0.0 | 9.7 | 0.00 | 0.13 | 0.00 | 62 | 1017.7 |
| 20260510151021 | 33 | 233 | 1.6 | 9.7 | 0.00 | 0.13 | 0.00 | 62 | 1017.8 |
| 20260510150524 | 33 | 229 | 1.6 | 12.9 | 0.00 | 0.13 | 0.00 | 64 | 1017.7 |
| 20260510150047 | 32 | 284 | 0.0 | 12.9 | 0.00 | 0.13 | 0.00 | 65 | 1017.7 |
| 20260510145522 | 32 | 160 | 3.2 | 12.9 | 0.00 | 0.13 | 0.00 | 65 | 1017.7 |
| 20260510145021 | 32 | 231 | 3.2 | 8.0 | 0.00 | 0.13 | 0.00 | 66 | 1017.6 |
| 20260510144537 | 32 | 242 | 1.6 | 8.0 | 0.00 | 0.13 | 0.00 | 66 | 1017.6 |
| 20260510144021 | 32 | 0 | 1.6 | 8.0 | 0.00 | 0.13 | 0.00 | 67 | 1017.5 |
| 20260510143521 | 32 | 196 | 0.0 | 8.0 | 0.00 | 0.13 | 0.00 | 69 | 1017.7 |
| 20260510143039 | 31 | 190 | 1.6 | 8.0 | 0.00 | 0.13 | 0.00 | 69 | 1017.8 |
| 20260510142524 | 31 | 0 | 1.6 | 6.4 | 0.00 | 0.13 | 0.00 | 72 | 1017.6 |
| 20260510142024 | 31 | 138 | 0.0 | 8.0 | 0.00 | 0.13 | 0.00 | 73 | 1017.5 |
| 20260510141537 | 30 | 178 | 1.6 | 8.0 | 0.00 | 0.13 | 0.00 | 73 | 1017.5 |
| 20260510141022 | 30 | 0 | 1.6 | 6.4 | 0.00 | 0.13 | 0.00 | 74 | 1017.5 |
| 20260510140522 | 30 | 281 | 1.6 | 6.4 | 0.00 | 0.13 | 0.00 | 76 | 1017.5 |
| 20260510140038 | 29 | 38 | 1.6 | 8.0 | 0.00 | 0.13 | 0.00 | 76 | 1017.4 |
| 20260510135521 | 29 | 0 | 1.6 | 8.0 | 0.00 | 0.13 | 0.00 | 78 | 1017.4 |
| 20260510135024 | 28 | 250 | 0.0 | 4.8 | 0.00 | 0.13 | 0.00 | 79 | 1017.3 |
| 20260510134537 | 28 | 0 | 0.0 | 8.0 | 0.00 | 0.13 | 0.00 | 78 | 1017.3 |
| 20260510134021 | 28 | 0 | 0.0 | 8.0 | 0.00 | 0.13 | 0.00 | 78 | 1017.3 |
| 20260510133521 | 28 | 0 | 0.0 | 11.3 | 0.00 | 0.13 | 0.00 | 79 | 1017.4 |
| 20260510133045 | 28 | 0 | 1.6 | 11.3 | 0.00 | 0.13 | 0.00 | 80 | 1017.4 |
| 20260510132521 | 27 | 194 | 1.6 | 11.3 | 0.00 | 0.13 | 0.00 | 81 | 1017.4 |
| 20260510132021 | 27 | 0 | 3.2 | 11.3 | 0.00 | 0.13 | 0.00 | 82 | 1017.3 |
| 20260510131541 | 27 | 0 | 0.0 | 4.8 | 0.00 | 0.13 | 0.00 | 84 | 1017.2 |
| 20260510131021 | 26 | 129 | 1.6 | 4.8 | 0.00 | 0.13 | 0.00 | 85 | 1017.2 |
| 20260510130530 | 26 | 202 | 0.0 | 4.8 | 0.00 | 0.13 | 0.00 | 86 | 1017.2 |
| 20260510130038 | 26 | 194 | 0.0 | 4.8 | 0.00 | 0.13 | 0.00 | 87 | 1017.2 |
| 20260510125524 | 25 | 136 | 1.6 | 4.8 | 0.00 | 0.13 | 0.00 | 88 | 1017.2 |
| 20260510125022 | 25 | 140 | 0.0 | 6.4 | 0.00 | 0.13 | 0.00 | 89 | 1017.1 |
| 20260510124538 | 25 | 0 | 0.0 | 6.4 | 0.00 | 0.13 | 0.00 | 90 | 1017.1 |
| 20260510124023 | 24 | 181 | 0.0 | 6.4 | 0.00 | 0.13 | 0.00 | 91 | 1017.1 |
| 20260510123522 | 24 | 151 | 0.0 | 6.4 | 0.00 | 0.13 | 0.00 | 91 | 1017.0 |
| 20260510123037 | 24 | 0 | 0.0 | 4.8 | 0.00 | 0.13 | 0.00 | 93 | 1017.0 |
| 20260510122521 | 23 | 0 | 1.6 | 4.8 | 0.00 | 0.13 | 0.00 | 93 | 1017.0 |
| 20260510122021 | 23 | 120 | 0.0 | 3.2 | 0.00 | 0.13 | 0.00 | 94 | 1017.0 |
| 20260510121537 | 23 | 0 | 0.0 | 4.8 | 0.00 | 0.13 | 0.00 | 94 | 1016.8 |
| 20260510121021 | 23 | 0 | 0.0 | 4.8 | 0.00 | 0.13 | 0.00 | 94 | 1016.9 |
| 20260510120527 | 23 | 0 | 0.0 | 4.8 | 0.00 | 0.13 | 0.00 | 94 | 1016.6 |
| 20260510120037 | 22 | 0 | 0.0 | 3.2 | 0.00 | 0.13 | 0.00 | 94 | 1016.5 |
| 20260510115524 | 22 | 0 | 0.0 | 4.8 | 0.00 | 0.13 | 0.00 | 95 | 1016.6 |
| 20260510115025 | 22 | 164 | 0.0 | 8.0 | 0.00 | 0.13 | 0.00 | 95 | 1016.6 |
| 20260510114547 | 22 | 120 | 0.0 | 8.0 | 0.00 | 0.13 | 0.00 | 95 | 1016.5 |
| 20260510114021 | 22 | 139 | 0.0 | 8.0 | 0.00 | 0.13 | 0.00 | 95 | 1016.4 |
| 20260510113520 | 22 | 0 | 0.0 | 3.2 | 0.00 | 0.13 | 0.00 | 95 | 1016.5 |
| 20260510113038 | 22 | 0 | 0.0 | 3.2 | 0.00 | 0.13 | 0.00 | 95 | 1016.4 |
| 20260510112527 | 22 | 0 | 0.0 | 3.2 | 0.00 | 0.13 | 0.00 | 94 | 1016.3 |
| 20260510112025 | 22 | 121 | 0.0 | 4.8 | 0.00 | 0.13 | 0.00 | 94 | 1016.3 |
| 20260510111539 | 22 | 0 | 0.0 | 4.8 | 0.00 | 0.13 | 0.00 | 94 | 1016.1 |
| 20260510111023 | 22 | 0 | 0.0 | 4.8 | 0.00 | 0.13 | 0.00 | 94 | 1016.0 |
| 20260510110524 | 22 | 0 | 0.0 | 1.6 | 0.00 | 0.13 | 0.00 | 94 | 1016.0 |
| 20260510110042 | 22 | 0 | 0.0 | 3.2 | 0.00 | 0.13 | 0.00 | 94 | 1015.8 |
| 20260510105524 | 22 | 0 | 0.0 | 3.2 | 0.00 | 0.13 | 0.00 | 94 | 1015.7 |
| 20260510105021 | 22 | 0 | 0.0 | 3.2 | 0.00 | 0.13 | 0.00 | 94 | 1015.6 |
| 20260510104537 | 22 | 0 | 0.0 | 1.6 | 0.00 | 0.13 | 0.00 | 94 | 1015.7 |
| 20260510104028 | 22 | 0 | 0.0 | 1.6 | 0.00 | 0.13 | 0.00 | 94 | 1015.5 |
| 20260510103521 | 22 | 0 | 0.0 | 1.6 | 0.00 | 0.13 | 0.00 | 93 | 1015.6 |
| 20260510103038 | 22 | 0 | 0.0 | 1.6 | 0.00 | 0.13 | 0.00 | 93 | 1015.6 |
| 20260510102521 | 22 | 0 | 0.0 | 0.0 | 0.00 | 0.13 | 0.00 | 93 | 1015.6 |
| 20260510102027 | 22 | 0 | 0.0 | 0.0 | 0.00 | 0.13 | 0.00 | 93 | 1015.5 |
| 20260510101538 | 22 | 0 | 0.0 | 0.0 | 0.00 | 0.13 | 0.00 | 93 | 1015.5 |
| 20260510101021 | 22 | 0 | 0.0 | 0.0 | 0.00 | 0.13 | 0.00 | 93 | 1015.4 |
| 20260510100521 | 22 | 0 | 0.0 | 3.2 | 0.00 | 0.13 | 0.00 | 93 | 1015.3 |
| 20260510100044 | 22 | 0 | 0.0 | 3.2 | 0.00 | 0.13 | 0.00 | 93 | 1015.0 |
| 20260510095524 | 22 | 0 | 0.0 | 3.2 | 0.00 | 0.13 | 0.00 | 92 | 1015.0 |
| 20260510095024 | 22 | 0 | 0.0 | 0.0 | 0.00 | 0.13 | 0.00 | 92 | 1015.1 |
| 20260510094546 | 22 | 0 | 0.0 | 0.0 | 0.00 | 0.13 | 0.00 | 92 | 1015.1 |
| 20260510094024 | 22 | 0 | 0.0 | 0.0 | 0.00 | 0.13 | 0.00 | 92 | 1015.2 |
| 20260510093520 | 22 | 0 | 0.0 | 0.0 | 0.00 | 0.13 | 0.00 | 92 | 1015.0 |
| 20260510093037 | 22 | 0 | 0.0 | 0.0 | 0.00 | 0.13 | 0.00 | 92 | 1015.0 |
| 20260510092524 | 22 | 0 | 0.0 | 0.0 | 0.00 | 0.13 | 0.00 | 92 | 1014.9 |
| 20260510092026 | 22 | 0 | 0.0 | 0.0 | 0.00 | 0.13 | 0.00 | 92 | 1014.7 |
| 20260510091541 | 22 | 0 | 0.0 | 0.0 | 0.00 | 0.13 | 0.00 | 91 | 1014.7 |
| 20260510091024 | 22 | 0 | 0.0 | 0.0 | 0.00 | 0.13 | 0.00 | 91 | 1014.6 |
| 20260510090524 | 22 | 0 | 0.0 | 0.0 | 0.00 | 0.13 | 0.00 | 92 | 1014.7 |
| 20260510090036 | 22 | 0 | 0.0 | 0.0 | 0.00 | 0.13 | 0.00 | 92 | 1014.5 |
| 20260510085521 | 22 | 0 | 0.0 | 0.0 | 0.00 | 0.13 | 0.00 | 92 | 1014.5 |
| 20260510085021 | 22 | 0 | 0.0 | 0.0 | 0.00 | 0.13 | 0.00 | 91 | 1014.4 |
| 20260510084539 | 22 | 0 | 0.0 | 0.0 | 0.00 | 0.13 | 0.00 | 91 | 1014.5 |
| 20260510084021 | 23 | 0 | 0.0 | 1.6 | 0.00 | 0.13 | 0.00 | 91 | 1014.4 |
| 20260510083521 | 23 | 0 | 0.0 | 3.2 | 0.00 | 0.13 | 0.00 | 91 | 1014.4 |
| 20260510083051 | 23 | 0 | 0.0 | 3.2 | 0.00 | 0.13 | 0.00 | 91 | 1014.3 |
| 20260510082520 | 23 | 0 | 0.0 | 1.6 | 0.00 | 0.13 | 0.00 | 91 | 1014.4 |
| 20260510082022 | 23 | 0 | 0.0 | 0.0 | 0.00 | 0.13 | 0.00 | 91 | 1014.3 |
| 20260510081541 | 23 | 0 | 0.0 | 0.0 | 0.00 | 0.13 | 0.00 | 91 | 1014.2 |
| 20260510081021 | 23 | 0 | 0.0 | 1.6 | 0.00 | 0.13 | 0.00 | 91 | 1014.2 |
| 20260510080526 | 23 | 0 | 0.0 | 3.2 | 0.00 | 0.13 | 0.00 | 91 | 1014.2 |
| 20260510080038 | 23 | 0 | 0.0 | 3.2 | 0.00 | 0.13 | 0.00 | 91 | 1014.2 |
| 20260510075526 | 23 | 0 | 0.0 | 3.2 | 0.00 | 0.13 | 0.00 | 91 | 1014.2 |
| 20260510075026 | 23 | 0 | 0.0 | 4.8 | 0.00 | 0.13 | 0.00 | 92 | 1014.2 |
| 20260510074537 | 23 | 0 | 0.0 | 8.0 | 0.00 | 0.13 | 0.00 | 92 | 1014.2 |
| 20260510074024 | 23 | 128 | 1.6 | 8.0 | 0.00 | 0.13 | 0.00 | 92 | 1014.3 |
| 20260510073524 | 23 | 0 | 1.6 | 8.0 | 0.00 | 0.13 | 0.00 | 92 | 1014.4 |
| 20260510073050 | 23 | 142 | 0.0 | 4.8 | 0.00 | 0.13 | 0.00 | 92 | 1014.5 |
| 20260510072524 | 23 | 0 | 0.0 | 8.0 | 0.00 | 0.13 | 0.00 | 92 | 1014.6 |
| 20260510072021 | 23 | 115 | 1.6 | 8.0 | 0.00 | 0.13 | 0.00 | 92 | 1014.6 |
| 20260510071540 | 23 | 95 | 1.6 | 8.0 | 0.00 | 0.13 | 0.00 | 92 | 1014.6 |
| 20260510071020 | 23 | 117 | 1.6 | 6.4 | 0.00 | 0.13 | 0.00 | 93 | 1014.6 |
| 20260510070521 | 23 | 0 | 0.0 | 6.4 | 0.00 | 0.13 | 0.00 | 93 | 1014.8 |
| 20260510070040 | 23 | 129 | 0.0 | 3.2 | 0.00 | 0.13 | 0.00 | 93 | 1014.9 |
| 20260510065522 | 23 | 0 | 0.0 | 4.8 | 0.00 | 0.13 | 0.00 | 93 | 1014.9 |
| 20260510065027 | 23 | 0 | 0.0 | 4.8 | 0.00 | 0.13 | 0.00 | 93 | 1014.9 |
| 20260510064540 | 23 | 123 | 1.6 | 4.8 | 0.00 | 0.13 | 0.00 | 93 | 1015.0 |
| 20260510064022 | 23 | 137 | 0.0 | 1.6 | 0.00 | 0.13 | 0.00 | 93 | 1015.0 |
| 20260510063522 | 23 | 0 | 0.0 | 0.0 | 0.00 | 0.13 | 0.00 | 93 | 1015.2 |
| 20260510063038 | 23 | 0 | 0.0 | 0.0 | 0.00 | 0.13 | 0.00 | 93 | 1015.1 |
| 20260510062522 | 23 | 0 | 0.0 | 0.0 | 0.00 | 0.13 | 0.00 | 93 | 1015.2 |
| 20260510062022 | 23 | 0 | 0.0 | 1.6 | 0.00 | 0.13 | 0.00 | 93 | 1015.2 |
| 20260510061537 | 23 | 0 | 0.0 | 3.2 | 0.00 | 0.13 | 0.00 | 93 | 1015.2 |
| 20260510061022 | 23 | 0 | 0.0 | 3.2 | 0.00 | 0.13 | 0.00 | 93 | 1015.2 |
| 20260510060525 | 23 | 139 | 0.0 | 3.2 | 0.00 | 0.13 | 0.00 | 93 | 1015.3 |
| 20260510060042 | 23 | 0 | 0.0 | 1.6 | 0.00 | 0.13 | 0.00 | 93 | 1015.4 |
| 20260510055522 | 23 | 0 | 0.0 | 3.2 | 0.00 | 0.13 | 0.00 | 93 | 1015.4 |
| 20260510055023 | 23 | 0 | 0.0 | 3.2 | 0.00 | 0.13 | 0.00 | 93 | 1015.6 |
| 20260510054541 | 23 | 0 | 0.0 | 3.2 | 0.00 | 0.13 | 0.00 | 93 | 1015.6 |
| 20260510054025 | 23 | 0 | 0.0 | 0.0 | 0.00 | 0.13 | 0.00 | 94 | 1015.7 |
| 20260510053521 | 23 | 0 | 0.0 | 3.2 | 0.00 | 0.13 | 0.00 | 94 | 1015.8 |
| 20260510053038 | 23 | 0 | 0.0 | 4.8 | 0.00 | 0.13 | 0.00 | 94 | 1015.9 |
| 20260510052522 | 23 | 141 | 0.0 | 4.8 | 0.00 | 0.13 | 0.00 | 93 | 1015.9 |
| 20260510052024 | 24 | 281 | 0.0 | 1.6 | 0.00 | 0.13 | 0.00 | 94 | 1015.9 |
| 20260510051539 | 24 | 0 | 0.0 | 1.6 | 0.00 | 0.13 | 0.00 | 94 | 1016.0 |
| 20260510051023 | 24 | 0 | 0.0 | 0.0 | 0.00 | 0.13 | 0.00 | 94 | 1016.0 |
| 20260510050522 | 24 | 0 | 0.0 | 1.6 | 0.00 | 0.13 | 0.00 | 94 | 1016.0 |
| 20260510050039 | 24 | 0 | 0.0 | 1.6 | 0.00 | 0.13 | 0.00 | 93 | 1016.0 |
| 20260510045526 | 24 | 0 | 0.0 | 1.6 | 0.00 | 0.13 | 0.00 | 93 | 1016.0 |
| 20260510045023 | 24 | 0 | 0.0 | 3.2 | 0.00 | 0.13 | 0.00 | 93 | 1015.9 |
| 20260510044536 | 24 | 0 | 0.0 | 3.2 | 0.00 | 0.13 | 0.00 | 94 | 1015.9 |
| 20260510044022 | 24 | 0 | 0.0 | 1.6 | 0.00 | 0.13 | 0.00 | 93 | 1016.0 |
| 20260510043522 | 24 | 0 | 0.0 | 1.6 | 0.00 | 0.13 | 0.00 | 93 | 1016.1 |
| 20260510043035 | 24 | 0 | 0.0 | 1.6 | 0.00 | 0.13 | 0.00 | 93 | 1016.1 |
| 20260510042523 | 24 | 0 | 0.0 | 0.0 | 0.00 | 0.13 | 0.00 | 93 | 1016.2 |
| 20260510042023 | 24 | 0 | 0.0 | 0.0 | 0.00 | 0.13 | 0.00 | 92 | 1016.3 |
| 20260510041543 | 24 | 0 | 0.0 | 0.0 | 0.00 | 0.13 | 0.00 | 92 | 1016.3 |
| 20260510041022 | 24 | 0 | 0.0 | 0.0 | 0.00 | 0.13 | 0.00 | 92 | 1016.4 |
| 20260510040523 | 24 | 0 | 0.0 | 0.0 | 0.00 | 0.13 | 0.00 | 92 | 1016.3 |
| 20260510040039 | 24 | 0 | 0.0 | 0.0 | 0.00 | 0.13 | 0.00 | 92 | 1016.3 |
| 20260510035523 | 24 | 0 | 0.0 | 0.0 | 0.00 | 0.13 | 0.13 | 92 | 1016.2 |
| 20260510035022 | 24 | 0 | 0.0 | 0.0 | 0.00 | 0.13 | 0.13 | 91 | 1016.3 |
| 20260510034538 | 24 | 0 | 0.0 | 0.0 | 0.00 | 0.13 | 0.13 | 91 | 1016.2 |
| 20260510034022 | 24 | 0 | 0.0 | 0.0 | 0.00 | 0.13 | 0.13 | 91 | 1016.1 |
| 20260510033526 | 24 | 0 | 0.0 | 0.0 | 0.00 | 0.13 | 0.13 | 91 | 1016.0 |
| 20260510033038 | 25 | 0 | 0.0 | 0.0 | 0.00 | 0.13 | 0.13 | 91 | 1015.9 |
| 20260510032523 | 25 | 0 | 0.0 | 0.0 | 0.00 | 0.13 | 0.13 | 91 | 1015.8 |
| 20260510032024 | 25 | 0 | 0.0 | 0.0 | 0.08 | 0.13 | 0.13 | 91 | 1015.8 |
| 20260510031537 | 25 | 0 | 0.0 | 0.0 | 0.13 | 0.13 | 0.13 | 91 | 1015.8 |
| 20260510031022 | 25 | 0 | 0.0 | 0.0 | 0.13 | 0.13 | 0.13 | 91 | 1016.0 |
| 20260510030522 | 25 | 0 | 0.0 | 0.0 | 0.13 | 0.13 | 0.13 | 90 | 1015.9 |
| 20260510030044 | 25 | 0 | 0.0 | 0.0 | 0.13 | 0.13 | 0.13 | 90 | 1015.9 |
| 20260510025522 | 25 | 0 | 0.0 | 0.0 | 0.13 | 0.13 | 0.13 | 90 | 1015.9 |
| 20260510025022 | 25 | 0 | 0.0 | 0.0 | 0.13 | 0.13 | 0.13 | 89 | 1015.8 |
| 20260510024535 | 25 | 0 | 0.0 | 0.0 | 0.13 | 0.13 | 0.13 | 89 | 1015.9 |
| 20260510024023 | 25 | 0 | 0.0 | 0.0 | 0.13 | 0.13 | 0.13 | 89 | 1015.7 |
| 20260510023522 | 25 | 0 | 0.0 | 1.6 | 0.13 | 0.13 | 0.13 | 88 | 1015.8 |
| 20260510023037 | 25 | 0 | 0.0 | 1.6 | 0.13 | 0.13 | 0.13 | 88 | 1015.8 |
| 20260510022522 | 25 | 0 | 0.0 | 1.6 | 0.13 | 0.13 | 0.13 | 87 | 1015.8 |
| 20260510022021 | 25 | 0 | 0.0 | 1.6 | 0.00 | 0.00 | 0.00 | 86 | 1015.8 |
| 20260510021537 | 25 | 0 | 0.0 | 0.0 | 0.00 | 0.00 | 0.00 | 85 | 1015.8 |
| 20260510021022 | 25 | 0 | 0.0 | 0.0 | 0.00 | 0.00 | 0.00 | 84 | 1015.8 |
| 20260510020524 | 25 | 0 | 0.0 | 0.0 | 0.00 | 0.00 | 0.00 | 84 | 1015.8 |
| 20260510020037 | 25 | 0 | 0.0 | 0.0 | 0.00 | 0.00 | 0.00 | 83 | 1015.7 |
| 20260510015522 | 25 | 0 | 0.0 | 0.0 | 0.00 | 0.00 | 0.00 | 83 | 1015.5 |
| 20260510015023 | 25 | 0 | 0.0 | 0.0 | 0.00 | 0.00 | 0.00 | 83 | 1015.5 |
| 20260510014536 | 25 | 0 | 0.0 | 0.0 | 0.00 | 0.00 | 0.00 | 83 | 1015.4 |
| 20260510014022 | 25 | 0 | 0.0 | 0.0 | 0.00 | 0.00 | 0.00 | 83 | 1015.4 |
| 20260510013522 | 25 | 0 | 0.0 | 0.0 | 0.00 | 0.00 | 0.00 | 82 | 1015.3 |
| 20260510013040 | 26 | 0 | 0.0 | 0.0 | 0.00 | 0.00 | 0.00 | 82 | 1015.2 |
| 20260510012522 | 26 | 0 | 0.0 | 1.6 | 0.00 | 0.00 | 0.00 | 82 | 1015.2 |
| 20260510012022 | 26 | 0 | 0.0 | 1.6 | 0.00 | 0.00 | 0.00 | 82 | 1015.2 |
| 20260510011545 | 26 | 0 | 0.0 | 0.0 | 0.00 | 0.00 | 0.00 | 82 | 1015.0 |
| 20260510011023 | 26 | 0 | 0.0 | 0.0 | 0.00 | 0.00 | 0.00 | 82 | 1015.1 |
| 20260510010522 | 26 | 0 | 0.0 | 0.0 | 0.00 | 0.00 | 0.00 | 81 | 1015.0 |
| 20260510010038 | 26 | 0 | 0.0 | 0.0 | 0.00 | 0.00 | 0.00 | 81 | 1015.1 |
| 20260510005522 | 26 | 0 | 0.0 | 0.0 | 0.00 | 0.00 | 0.00 | 81 | 1014.8 |
| 20260510005021 | 26 | 0 | 0.0 | 0.0 | 0.00 | 0.00 | 0.00 | 81 | 1014.8 |
| 20260510004537 | 26 | 0 | 0.0 | 1.6 | 0.00 | 0.00 | 0.00 | 81 | 1014.8 |
| 20260510004022 | 26 | 0 | 0.0 | 1.6 | 0.00 | 0.00 | 0.00 | 81 | 1014.9 |
| 20260510003522 | 26 | 0 | 0.0 | 1.6 | 0.00 | 0.00 | 0.00 | 80 | 1014.9 |
| 20260510003041 | 26 | 0 | 0.0 | 1.6 | 0.00 | 0.00 | 0.00 | 80 | 1014.7 |
| 20260510002523 | 26 | 0 | 0.0 | 1.6 | 0.00 | 0.00 | 0.00 | 80 | 1014.5 |
| 20260510002022 | 26 | 0 | 0.0 | 1.6 | 0.00 | 0.00 | 0.00 | 79 | 1014.5 |
| 20260510001537 | 26 | 0 | 0.0 | 3.2 | 0.00 | 0.00 | 0.00 | 79 | 1014.4 |
| 20260510001022 | 26 | 0 | 0.0 | 3.2 | 0.00 | 0.00 | 0.00 | 79 | 1014.4 |
| 20260510000521 | 26 | 302 | 0.0 | 3.2 | 0.00 | 0.00 | 0.00 | 79 | 1014.5 |
| 20260510000045 | 27 | 0 | 0.0 | 3.2 | 0.00 | 0.00 | 0.00 | 78 | 1014.5 |
| 20260509235522 | 27 | 0 | 0.0 | 3.2 | 0.00 | 0.00 | 0.00 | 77 | 1014.5 |
| 20260509235022 | 27 | 0 | 0.0 | 4.8 | 0.00 | 0.00 | 0.00 | 77 | 1014.2 |
| 20260509234542 | 27 | 0 | 1.6 | 4.8 | 0.00 | 0.00 | 0.00 | 77 | 1014.2 |
| 20260509234023 | 27 | 0 | 0.0 | 4.8 | 0.00 | 0.00 | 0.00 | 76 | 1014.2 |
| 20260509233521 | 27 | 0 | 1.6 | 4.8 | 0.00 | 0.00 | 0.00 | 76 | 1014.3 |
| 20260509233038 | 27 | 315 | 1.6 | 4.8 | 0.00 | 0.00 | 0.00 | 76 | 1014.2 |
| 20260509232523 | 27 | 322 | 1.6 | 4.8 | 0.00 | 0.00 | 0.00 | 75 | 1014.1 |
| 20260509232023 | 27 | 318 | 1.6 | 4.8 | 0.00 | 0.00 | 0.00 | 75 | 1014.2 |
| 20260509231542 | 27 | 322 | 0.0 | 4.8 | 0.00 | 0.00 | 0.00 | 74 | 1014.2 |
| 20260509231022 | 28 | 323 | 1.6 | 4.8 | 0.00 | 0.00 | 0.00 | 74 | 1014.1 |
| 20260509230522 | 28 | 325 | 1.6 | 6.4 | 0.00 | 0.00 | 0.00 | 74 | 1014.0 |
| 20260509230037 | 28 | 318 | 1.6 | 6.4 | 0.00 | 0.00 | 0.00 | 73 | 1014.0 |
| 20260509225523 | 28 | 318 | 1.6 | 6.4 | 0.00 | 0.00 | 0.00 | 72 | 1014.0 |
| 20260509225022 | 28 | 235 | 1.6 | 6.4 | 0.00 | 0.00 | 0.00 | 71 | 1014.0 |
| 20260509224536 | 28 | 319 | 1.6 | 6.4 | 0.00 | 0.00 | 0.00 | 71 | 1014.1 |
| 20260509224022 | 28 | 335 | 1.6 | 4.8 | 0.00 | 0.00 | 0.00 | 70 | 1013.9 |
| 20260509223522 | 28 | 321 | 1.6 | 6.4 | 0.00 | 0.00 | 0.00 | 69 | 1013.8 |
| 20260509223039 | 29 | 327 | 1.6 | 6.4 | 0.00 | 0.00 | 0.00 | 69 | 1013.9 |
| 20260509222522 | 29 | 346 | 1.6 | 8.0 | 0.00 | 0.00 | 0.00 | 69 | 1013.8 |
| 20260509222022 | 29 | 329 | 1.6 | 9.7 | 0.00 | 0.00 | 0.00 | 68 | 1013.7 |
| 20260509221542 | 29 | 307 | 1.6 | 11.3 | 0.00 | 0.00 | 0.00 | 67 | 1013.7 |
| 20260509221022 | 29 | 321 | 1.6 | 11.3 | 0.00 | 0.00 | 0.00 | 65 | 1013.5 |
| 20260509220523 | 30 | 279 | 1.6 | 4.8 | 0.00 | 0.00 | 0.00 | 65 | 1013.6 |
| 20260509220040 | 30 | 310 | 1.6 | 6.4 | 0.00 | 0.00 | 0.00 | 64 | 1013.5 |
| 20260509215522 | 30 | 338 | 1.6 | 8.0 | 0.00 | 0.00 | 0.00 | 64 | 1013.6 |
| 20260509215021 | 30 | 284 | 1.6 | 8.0 | 0.00 | 0.00 | 0.00 | 63 | 1013.4 |
| 20260509214537 | 30 | 254 | 1.6 | 8.0 | 0.00 | 0.00 | 0.00 | 64 | 1013.4 |
| 20260509214021 | 30 | 274 | 1.6 | 8.0 | 0.00 | 0.00 | 0.00 | 64 | 1013.4 |
| 20260509213522 | 30 | 248 | 1.6 | 8.0 | 0.00 | 0.00 | 0.00 | 62 | 1013.3 |
| 20260509213038 | 31 | 221 | 3.2 | 8.0 | 0.00 | 0.00 | 0.00 | 60 | 1013.4 |
| 20260509212522 | 31 | 311 | 1.6 | 11.3 | 0.00 | 0.00 | 0.00 | 59 | 1013.4 |
| 20260509212022 | 31 | 281 | 3.2 | 11.3 | 0.00 | 0.00 | 0.00 | 57 | 1013.3 |
| 20260509211537 | 32 | 315 | 0.0 | 16.1 | 0.00 | 0.00 | 0.00 | 55 | 1013.3 |
| 20260509211022 | 32 | 319 | 1.6 | 16.1 | 0.00 | 0.00 | 0.00 | 53 | 1013.2 |
| 20260509210525 | 32 | 280 | 3.2 | 12.9 | 0.00 | 0.00 | 0.00 | 53 | 1013.2 |
| 20260509210044 | 32 | 327 | 3.2 | 14.5 | 0.00 | 0.00 | 0.00 | 52 | 1013.0 |
| 20260509205522 | 33 | 259 | 3.2 | 14.5 | 0.00 | 0.00 | 0.00 | 50 | 1013.0 |
| 20260509205023 | 33 | 323 | 3.2 | 14.5 | 0.00 | 0.00 | 0.00 | 51 | 1013.1 |
| 20260509204542 | 33 | 159 | 1.6 | 12.9 | 0.00 | 0.00 | 0.00 | 52 | 1012.9 |
| 20260509204026 | 33 | 232 | 3.2 | 16.1 | 0.00 | 0.00 | 0.00 | 50 | 1012.9 |
| 20260509203521 | 33 | 315 | 3.2 | 16.1 | 0.00 | 0.00 | 0.00 | 50 | 1013.0 |
| 20260509203041 | 33 | 224 | 1.6 | 12.9 | 0.00 | 0.00 | 0.00 | 50 | 1013.0 |
| 20260509202524 | 33 | 254 | 1.6 | 12.9 | 0.00 | 0.00 | 0.00 | 50 | 1012.9 |
| 20260509202022 | 33 | 254 | 3.2 | 12.9 | 0.00 | 0.00 | 0.00 | 49 | 1012.9 |
| 20260509201537 | 33 | 300 | 1.6 | 12.9 | 0.00 | 0.00 | 0.00 | 52 | 1012.9 |
| 20260509201025 | 33 | 271 | 3.2 | 11.3 | 0.00 | 0.00 | 0.00 | 50 | 1013.0 |
| 20260509200522 | 33 | 325 | 3.2 | 9.7 | 0.00 | 0.00 | 0.00 | 53 | 1013.0 |
| 20260509200037 | 33 | 319 | 1.6 | 9.7 | 0.00 | 0.00 | 0.00 | 54 | 1013.0 |
| 20260509195521 | 33 | 192 | 1.6 | 14.5 | 0.00 | 0.00 | 0.00 | 53 | 1013.1 |
| 20260509195022 | 33 | 0 | 1.6 | 14.5 | 0.00 | 0.00 | 0.00 | 55 | 1013.0 |
| 20260509194537 | 33 | 311 | 3.2 | 14.5 | 0.00 | 0.00 | 0.00 | 54 | 1013.1 |